| time (UTC) | temp F | wind direction | speed MPH | gust MPH | rain 1hr in | rain 24hr in | rain mn in | humidity % | barometer mb |
| 20260505210359 | 53 | 61 | 7.0 | 17.0 | 0.00 | 0.00 | 0.00 | 78 | 1009.5 |
| 20260505205410 | 53 | 344 | 7.0 | 15.0 | 0.00 | 0.00 | 0.00 | 79 | 1009.6 |
| 20260505204844 | 53 | 337 | 6.0 | 13.0 | 0.00 | 0.00 | 0.00 | 79 | 1009.6 |
| 20260505203359 | 53 | 35 | 7.0 | 14.0 | 0.00 | 0.00 | 0.00 | 79 | 1009.5 |
| 20260505202359 | 53 | 345 | 6.0 | 12.0 | 0.00 | 0.00 | 0.00 | 80 | 1009.5 |
| 20260505201359 | 53 | 309 | 7.0 | 16.0 | 0.00 | 0.00 | 0.00 | 81 | 1009.4 |
| 20260505200358 | 53 | 306 | 7.0 | 13.0 | 0.00 | 0.00 | 0.00 | 82 | 1009.5 |
| 20260505195359 | 53 | 317 | 7.0 | 14.0 | 0.00 | 0.00 | 0.00 | 81 | 1009.4 |
| 20260505194359 | 53 | 42 | 7.0 | 13.0 | 0.00 | 0.00 | 0.00 | 81 | 1009.3 |
| 20260505193852 | 53 | 355 | 7.0 | 16.0 | 0.00 | 0.00 | 0.00 | 81 | 1009.3 |
| 20260505192843 | 53 | 315 | 7.0 | 19.0 | 0.00 | 0.00 | 0.00 | 80 | 1009.1 |
| 20260505191359 | 53 | 306 | 7.0 | 16.0 | 0.00 | 0.00 | 0.00 | 80 | 1009.2 |
| 20260505190403 | 53 | 346 | 7.0 | 19.0 | 0.00 | 0.00 | 0.00 | 80 | 1009.1 |
| 20260505185843 | 53 | 325 | 9.0 | 17.0 | 0.00 | 0.00 | 0.00 | 80 | 1009.0 |
| 20260505184359 | 53 | 319 | 8.0 | 17.0 | 0.00 | 0.00 | 0.00 | 79 | 1008.8 |
| 20260505183842 | 54 | 345 | 9.0 | 21.0 | 0.00 | 0.00 | 0.00 | 80 | 1008.8 |
| 20260505182359 | 54 | 355 | 9.0 | 18.0 | 0.00 | 0.00 | 0.00 | 80 | 1008.8 |
| 20260505181358 | 54 | 340 | 9.0 | 19.0 | 0.00 | 0.00 | 0.00 | 80 | 1008.7 |
| 20260505180359 | 54 | 355 | 9.0 | 19.0 | 0.00 | 0.00 | 0.00 | 80 | 1008.7 |
| 20260505175358 | 54 | 309 | 10.0 | 19.0 | 0.00 | 0.00 | 0.00 | 80 | 1008.6 |
| 20260505174839 | 54 | 336 | 10.0 | 17.0 | 0.00 | 0.00 | 0.00 | 79 | 1008.7 |
| 20260505173359 | 54 | 350 | 9.0 | 16.0 | 0.00 | 0.00 | 0.00 | 79 | 1008.6 |
| 20260505172404 | 54 | 346 | 10.0 | 17.0 | 0.00 | 0.00 | 0.00 | 78 | 1008.7 |
| 20260505171358 | 54 | 321 | 10.0 | 18.0 | 0.00 | 0.00 | 0.00 | 78 | 1008.6 |
| 20260505170843 | 54 | 296 | 9.0 | 22.0 | 0.00 | 0.00 | 0.00 | 78 | 1008.7 |
| 20260505165359 | 55 | 340 | 9.0 | 17.0 | 0.00 | 0.00 | 0.00 | 78 | 1008.7 |
| 20260505164837 | 55 | 13 | 9.0 | 18.0 | 0.00 | 0.00 | 0.00 | 77 | 1008.8 |
| 20260505163403 | 55 | 351 | 9.0 | 18.0 | 0.00 | 0.00 | 0.00 | 77 | 1008.8 |
| 20260505162359 | 55 | 355 | 9.0 | 17.0 | 0.00 | 0.00 | 0.00 | 77 | 1008.7 |
| 20260505161359 | 55 | 9 | 10.0 | 18.0 | 0.00 | 0.00 | 0.00 | 78 | 1008.8 |
| 20260505160358 | 55 | 5 | 9.0 | 19.0 | 0.00 | 0.00 | 0.00 | 78 | 1008.9 |
| 20260505153358 | 55 | 44 | 9.0 | 17.0 | 0.00 | 0.00 | 0.00 | 78 | 1008.9 |
| 20260505152836 | 55 | 341 | 9.0 | 18.0 | 0.00 | 0.00 | 0.00 | 78 | 1009.1 |
| 20260505151359 | 55 | 26 | 9.0 | 18.0 | 0.00 | 0.00 | 0.00 | 79 | 1009.1 |
| 20260505150403 | 55 | 12 | 8.0 | 16.0 | 0.00 | 0.00 | 0.00 | 77 | 1009.1 |
| 20260505140358 | 56 | 350 | 10.0 | 19.0 | 0.00 | 0.00 | 0.00 | 76 | 1009.2 |
| 20260505124358 | 56 | 316 | 8.0 | 17.0 | 0.00 | 0.00 | 0.00 | 76 | 1009.7 |
| 20260505123358 | 56 | 348 | 8.0 | 16.0 | 0.00 | 0.00 | 0.00 | 76 | 1009.8 |
| 20260505122358 | 56 | 340 | 9.0 | 16.0 | 0.00 | 0.00 | 0.00 | 75 | 1009.8 |
| 20260505121358 | 56 | 338 | 10.0 | 19.0 | 0.00 | 0.00 | 0.00 | 76 | 1009.7 |
| 20260505120358 | 56 | 336 | 10.0 | 18.0 | 0.00 | 0.00 | 0.00 | 75 | 1009.8 |
| 20260505115358 | 56 | 13 | 9.0 | 19.0 | 0.00 | 0.00 | 0.00 | 76 | 1009.8 |
| 20260505114357 | 57 | 326 | 9.0 | 17.0 | 0.00 | 0.00 | 0.00 | 75 | 1009.8 |
| 20260505113358 | 57 | 321 | 9.0 | 18.0 | 0.00 | 0.00 | 0.00 | 74 | 1009.8 |
| 20260505112841 | 57 | 338 | 8.0 | 19.0 | 0.00 | 0.00 | 0.00 | 73 | 1009.8 |
| 20260505111355 | 56 | 355 | 8.0 | 16.0 | 0.00 | 0.00 | 0.00 | 74 | 1009.9 |
| 20260505110400 | 56 | 19 | 9.0 | 16.0 | 0.00 | 0.00 | 0.00 | 75 | 1010.0 |
| 20260505101355 | 56 | 5 | 8.0 | 17.0 | 0.00 | 0.00 | 0.00 | 75 | 1010.3 |
| 20260505100355 | 56 | 355 | 7.0 | 14.0 | 0.00 | 0.00 | 0.00 | 74 | 1010.3 |
| 20260505095400 | 56 | 331 | 8.0 | 15.0 | 0.00 | 0.00 | 0.00 | 74 | 1010.3 |
| 20260505094833 | 56 | 339 | 8.0 | 16.0 | 0.00 | 0.00 | 0.00 | 74 | 1010.4 |
| 20260505093838 | 56 | 319 | 8.0 | 14.0 | 0.00 | 0.00 | 0.00 | 75 | 1010.3 |
| 20260505092832 | 56 | 314 | 7.0 | 15.0 | 0.00 | 0.00 | 0.00 | 75 | 1010.4 |
| 20260505091837 | 56 | 331 | 7.0 | 15.0 | 0.00 | 0.00 | 0.00 | 76 | 1010.4 |
| 20260505090400 | 56 | 13 | 6.0 | 13.0 | 0.00 | 0.00 | 0.00 | 76 | 1010.5 |
| 20260505085357 | 55 | 326 | 6.0 | 15.0 | 0.00 | 0.00 | 0.00 | 77 | 1010.5 |
| 20260505084355 | 55 | 15 | 8.0 | 17.0 | 0.00 | 0.00 | 0.00 | 77 | 1010.5 |
| 20260505083356 | 55 | 335 | 7.0 | 12.0 | 0.00 | 0.00 | 0.00 | 77 | 1010.6 |
| 20260505082355 | 55 | 0 | 7.0 | 14.0 | 0.00 | 0.00 | 0.00 | 77 | 1010.6 |
| 20260505081355 | 55 | 331 | 6.0 | 13.0 | 0.00 | 0.00 | 0.00 | 77 | 1010.6 |
| 20260505080355 | 55 | 334 | 6.0 | 14.0 | 0.00 | 0.00 | 0.00 | 78 | 1010.4 |
| 20260505080330 | 55 | 350 | 7.0 | 17.0 | 0.00 | 0.00 | 0.00 | 79 | 1010.4 |
| 20260505074358 | 54 | 317 | 7.0 | 15.0 | 0.00 | 0.00 | 0.00 | 79 | 1010.4 |
| 20260505073826 | 54 | 313 | 7.0 | 12.0 | 0.00 | 0.00 | 0.00 | 80 | 1010.3 |
| 20260505072353 | 54 | 319 | 6.0 | 17.0 | 0.00 | 0.00 | 0.00 | 80 | 1010.2 |
| 20260505071353 | 54 | 343 | 8.0 | 14.0 | 0.00 | 0.00 | 0.00 | 81 | 1010.1 |
| 20260505070353 | 53 | 341 | 7.0 | 16.0 | 0.00 | 0.00 | 0.00 | 81 | 1010.1 |
| 20260505065353 | 53 | 344 | 8.0 | 14.0 | 0.00 | 0.00 | 0.00 | 81 | 1010.3 |
| 20260505064824 | 53 | 331 | 7.0 | 16.0 | 0.00 | 0.00 | 0.00 | 81 | 1010.3 |
| 20260505063353 | 53 | 322 | 7.0 | 13.0 | 0.00 | 0.00 | 0.00 | 81 | 1010.6 |
| 20260505062353 | 53 | 344 | 6.0 | 12.0 | 0.00 | 0.00 | 0.00 | 82 | 1010.7 |
| 20260505061357 | 53 | 59 | 5.0 | 11.0 | 0.00 | 0.00 | 0.00 | 83 | 1010.8 |
| 20260505060353 | 53 | 22 | 6.0 | 12.0 | 0.00 | 0.00 | 0.00 | 83 | 1010.8 |
| 20260505055352 | 52 | 56 | 6.0 | 11.0 | 0.00 | 0.00 | 0.00 | 83 | 1010.8 |
| 20260505054403 | 53 | 337 | 6.0 | 10.0 | 0.00 | 0.00 | 0.00 | 83 | 1010.8 |
| 20260505053353 | 52 | 304 | 5.0 | 12.0 | 0.00 | 0.00 | 0.00 | 83 | 1010.8 |
| 20260505052353 | 52 | 342 | 6.0 | 14.0 | 0.00 | 0.00 | 0.00 | 83 | 1010.8 |
| 20260505051353 | 53 | 0 | 6.0 | 11.0 | 0.00 | 0.00 | 0.00 | 84 | 1010.9 |
| 20260505050353 | 52 | 329 | 6.0 | 12.0 | 0.00 | 0.00 | 0.00 | 84 | 1010.8 |
| 20260505041351 | 53 | 348 | 5.0 | 10.0 | 0.00 | 0.00 | 0.00 | 84 | 1010.6 |
| 20260505040835 | 53 | 333 | 6.0 | 13.0 | 0.00 | 0.00 | 0.00 | 84 | 1010.7 |
| 20260505035351 | 53 | 326 | 6.0 | 11.0 | 0.00 | 0.00 | 0.00 | 85 | 1010.7 |
| 20260505034350 | 53 | 341 | 6.0 | 13.0 | 0.00 | 0.00 | 0.00 | 84 | 1010.8 |
| 20260505033352 | 53 | 149 | 5.0 | 12.0 | 0.00 | 0.00 | 0.00 | 85 | 1010.9 |
| 20260505032355 | 53 | 329 | 5.0 | 10.0 | 0.00 | 0.00 | 0.00 | 85 | 1010.8 |
| 20260505031350 | 53 | 19 | 4.0 | 10.0 | 0.00 | 0.00 | 0.00 | 86 | 1010.8 |
| 20260505030831 | 53 | 346 | 5.0 | 11.0 | 0.00 | 0.00 | 0.00 | 86 | 1010.9 |
| 20260505025348 | 53 | 336 | 5.0 | 10.0 | 0.00 | 0.00 | 0.00 | 85 | 1010.9 |
| 20260505024831 | 53 | 27 | 6.0 | 11.0 | 0.00 | 0.00 | 0.00 | 85 | 1010.8 |
| 20260505023348 | 53 | 339 | 6.0 | 15.0 | 0.00 | 0.00 | 0.00 | 85 | 1010.7 |
| 20260505022837 | 53 | 17 | 5.0 | 10.0 | 0.00 | 0.00 | 0.00 | 85 | 1010.6 |
| 20260505021346 | 53 | 355 | 5.0 | 13.0 | 0.00 | 0.00 | 0.00 | 85 | 1010.7 |
| 20260505020347 | 53 | 74 | 5.0 | 11.0 | 0.00 | 0.00 | 0.00 | 85 | 1010.9 |
| 20260505015347 | 53 | 0 | 5.0 | 12.0 | 0.00 | 0.00 | 0.00 | 85 | 1011.1 |
| 20260505014346 | 53 | 0 | 6.0 | 12.0 | 0.00 | 0.00 | 0.00 | 85 | 1011.1 |
| 20260505013347 | 53 | 344 | 6.0 | 15.0 | 0.00 | 0.00 | 0.00 | 86 | 1011.1 |
| 20260505012821 | 53 | 321 | 6.0 | 12.0 | 0.00 | 0.00 | 0.00 | 87 | 1011.2 |
| 20260505011346 | 53 | 317 | 7.0 | 12.0 | 0.00 | 0.00 | 0.00 | 87 | 1011.3 |
| 20260505010346 | 53 | 311 | 6.0 | 12.0 | 0.00 | 0.00 | 0.00 | 87 | 1011.2 |
| 20260505005352 | 53 | 343 | 6.0 | 15.0 | 0.00 | 0.00 | 0.00 | 87 | 1011.5 |
| 20260505004836 | 53 | 327 | 7.0 | 13.0 | 0.00 | 0.00 | 0.00 | 87 | 1011.6 |
| 20260505003346 | 53 | 10 | 6.0 | 14.0 | 0.00 | 0.00 | 0.00 | 87 | 1011.6 |
| 20260505002347 | 54 | 9 | 6.0 | 15.0 | 0.00 | 0.00 | 0.00 | 87 | 1011.6 |
| 20260505001346 | 53 | 38 | 5.0 | 11.0 | 0.00 | 0.00 | 0.00 | 87 | 1011.6 |
| 20260505000351 | 53 | 343 | 6.0 | 13.0 | 0.00 | 0.00 | 0.00 | 88 | 1011.7 |
| 20260504235828 | 53 | 329 | 6.0 | 12.0 | 0.00 | 0.00 | 0.00 | 88 | 1011.7 |
| 20260504234347 | 53 | 20 | 5.0 | 13.0 | 0.00 | 0.00 | 0.00 | 88 | 1011.8 |
| 20260504233346 | 53 | 5 | 6.0 | 14.0 | 0.00 | 0.00 | 0.00 | 89 | 1011.8 |
| 20260504232346 | 53 | 37 | 6.0 | 11.0 | 0.00 | 0.00 | 0.00 | 89 | 1011.8 |
| 20260504231346 | 53 | 329 | 6.0 | 14.0 | 0.00 | 0.00 | 0.00 | 89 | 1011.9 |
| 20260504230347 | 53 | 329 | 7.0 | 13.0 | 0.00 | 0.00 | 0.00 | 89 | 1011.9 |
| 20260504225346 | 53 | 0 | 8.0 | 17.0 | 0.00 | 0.00 | 0.00 | 89 | 1012.0 |
| 20260504224826 | 53 | 319 | 8.0 | 14.0 | 0.00 | 0.00 | 0.00 | 89 | 1012.1 |
| 20260504223346 | 53 | 324 | 9.0 | 15.0 | 0.00 | 0.00 | 0.00 | 89 | 1012.1 |
| 20260504222346 | 53 | 330 | 9.0 | 15.0 | 0.00 | 0.00 | 0.00 | 89 | 1012.3 |
| 20260504221827 | 53 | 5 | 9.0 | 17.0 | 0.00 | 0.00 | 0.00 | 89 | 1012.2 |
| 20260504220346 | 53 | 349 | 8.0 | 15.0 | 0.00 | 0.00 | 0.00 | 90 | 1012.4 |
| 20260504215345 | 53 | 355 | 8.0 | 16.0 | 0.00 | 0.00 | 0.00 | 89 | 1012.5 |
| 20260504214345 | 53 | 345 | 8.0 | 18.0 | 0.00 | 0.00 | 0.00 | 89 | 1012.6 |
| 20260504213345 | 53 | 355 | 9.0 | 18.0 | 0.00 | 0.00 | 0.00 | 89 | 1012.7 |
| 20260504212346 | 53 | 336 | 9.0 | 14.0 | 0.00 | 0.00 | 0.00 | 89 | 1012.7 |
| 20260504211820 | 53 | 325 | 8.0 | 14.0 | 0.00 | 0.00 | 0.00 | 89 | 1012.7 |